Temp
-8 -8 -9 -9 -8 -8 -8 -7 -7 -7 -7 -7 -6 -6 -8 -8 -7 -7 -7 -7 -7 -7 -6 -7 -7 -7 -7 -7 -7 -7 -6 -6 -6 -6 -6 -5 -5 -6 -6 -5 -5 -5 -5 -5 -5 -5 -4 -4 -5
-7 -8 -9 -9 -9 -7 -7 -8 -7 -8 -8 -8 -8 -8 -9 -8 -7 -7 -7 -7 -7 -7 -8 -7 -7 -7 -7 -7 -7 -8 -7 -7 -7 -6 -6 -6 -6 -5 -6 -6 -5 -5 -5 -5 -5 -5 -5 -5 -5
-7 -9 -9 -9 -8 -8 -9 -8 -7 -7 -8 -9 -9 -9 -8 -7 -8 -8 -8 -8 -7 -7 -7 -8 -7 -8 -8 -8 -8 -8 -8 -7 -7 -7 -7 -7 -6 -6 -6 -6 -6 -6 -6 -5 -5 -5 -5 -5 -5
-8 -9 -9 -9 -10 -8 -10 -9 -7 -9 -9 -10 -9 -7 -8 -7 -7 -8 -7 -8 -8 -8 -7 -7 -8 -8 -9 -9 -9 -9 -8 -8 -8 -8 -8 -7 -7 -7 -7 -7 -7 -6 -6 -6 -6 -6 -6 -6 -6
-9 -9 -9 -10 -10 -9 -8 -10 -9 -9 -10 -9 -8 -8 -8 -8 -7 -7 -7 -8 -8 -8 -8 -8 -9 -9 -9 -9 -10 -10 -9 -9 -9 -9 -9 -9 -8 -8 -8 -8 -7 -7 -6 -6 -6 -6 -6 -6 -6
-9 -10 -10 -9 -9 -9 -9 -10 -10 -9 -9 -9 -8 -8 -8 -7 -7 -7 -7 -8 -8 -9 -8 -9 -9 -9 -9 -10 -10 -10 -10 -9 -9 -9 -9 -9 -9 -9 -9 -8 -8 -8 -8 -7 -7 -7 -7 -6 -7
-10 -10 -9 -8 -10 -9 -11 -10 -10 -9 -8 -8 -8 -8 -8 -8 -8 -8 -9 -9 -10 -10 -10 -10 -10 -10 -9 -9 -9 -10 -10 -10 -10 -10 -10 -10 -10 -10 -9 -9 -9 -8 -8 -8 -8 -8 -8 -8 -8
-10 -10 -11 -10 -10 -10 -10 -10 -9 -9 -8 -8 -8 -7 -8 -7 -8 -9 -9 -9 -9 -10 -10 -10 -9 -10 -10 -10 -9 -9 -9 -10 -11 -11 -11 -10 -10 -10 -10 -10 -10 -9 -9 -9 -9 -9 -9 -9 -9
-10 -10 -10 -10 -10 -9 -11 -10 -10 -9 -8 -8 -8 -8 -7 -8 -8 -9 -10 -10 -9 -10 -10 -10 -11 -10 -10 -10 -11 -9 -9 -10 -11 -11 -11 -11 -10 -10 -10 -10 -10 -10 -10 -9 -9 -9 -9 -9 -9
-10 -10 -11 -11 -11 -11 -11 -11 -10 -9 -9 -8 -9 -7 -7 -8 -9 -8 -9 -9 -9 -10 -10 -10 -10 -11 -11 -10 -12 -12 -11 -10 -10 -11 -11 -10 -10 -10 -11 -10 -10 -10 -10 -10 -10 -10 -10 -10 -10
-9 -10 -11 -11 -11 -11 -11 -11 -11 -10 -10 -9 -9 -8 -8 -8 -9 -9 -9 -9 -10 -10 -10 -10 -11 -10 -11 -11 -11 -10 -11 -11 -11 -11 -11 -11 -11 -11 -10 -10 -10 -9 -10 -10 -10 -11 -10 -10 -10
-9 -9 -11 -11 -11 -11 -11 -10 -10 -11 -10 -9 -9 -8 -8 -8 -9 -9 -9 -10 -10 -10 -10 -10 -10 -10 -11 -10 -10 -10 -11 -11 -10 -10 -10 -11 -11 -10 -10 -10 -10 -10 -10 -10 -10 -10 -10 -10 -10
-10 -11 -9 -9 -10 -10 -10 -10 -11 -10 -9 -9 -9 -9 -9 -9 -9 -10 -10 -10 -10 -10 -10 -10 -10 -10 -10 -10 -10 -10 -10 -10 -11 -11 -11 -11 -11 -11 -11 -11 -11 -11 -10 -10 -10 -10 -10 -10 -10
-9 -9 -10 -10 -10 -10 -10 -10 -10 -10 -10 -10 -10 -9 -9 -10 -10 -10 -10 -10 -11 -11 -10 -10 -10 -10 -10 -10 -11 -10 -10 -10 -11 -11 -11 -11 -11 -11 -11 -12 -12 -12 -11 -11 -11 -11 -11 -11 -11
-10 -10 -10 -11 -11 -10 -11 -10 -10 -10 -10 -10 -10 -10 -10 -10 -10 -10 -10 -10 -10 -10 -10 -10 -10 -10 -10 -10 -10 -11 -11 -10 -10 -11 -11 -11 -11 -11 -11 -12 -13 -12 -12 -12 -12 -12 -11 -11 -11
-10 -10 -11 -11 -11 -11 -11 -11 -11 -10 -10 -10 -10 -10 -10 -10 -11 -10 -10 -10 -10 -10 -10 -11 -11 -11 -11 -11 -11 -11 -11 -11 -11 -11 -11 -12 -11 -12 -12 -12 -13 -13 -13 -13 -13 -13 -13 -12 -12
-9 -10 -10 -10 -10 -11 -12 -11 -11 -11 -10 -10 -10 -10 -10 -11 -11 -11 -11 -11 -10 -11 -11 -11 -11 -12 -12 -12 -13 -12 -12 -12 -12 -12 -12 -11 -11 -12 -12 -12 -13 -13 -14 -14 -14 -13 -13 -13 -13
-10 -10 -11 -11 -11 -11 -11 -12 -12 -12 -10 -10 -9 -10 -11 -11 -11 -11 -11 -11 -11 -11 -12 -12 -12 -12 -12 -12 -13 -13 -13 -13 -13 -13 -13 -13 -12 -12 -12 -13 -13 -14 -14 -14 -14 -14 -14 -14 -14
-10 -11 -12 -11 -11 -11 -12 -12 -12 -13 -12 -11 -10 -9 -10 -10 -10 -10 -11 -11 -11 -11 -12 -12 -12 -12 -13 -13 -14 -13 -13 -13 -14 -14 -13 -13 -14 -13 -13 -13 -13 -14 -15 -14 -14 -14 -14 -14 -14
-10 -10 -11 -11 -11 -11 -12 -12 -12 -11 -11 -11 -11 -10 -10 -10 -10 -10 -12 -11 -12 -11 -11 -11 -11 -11 -12 -12 -13 -13 -14 -14 -13 -14 -14 -14 -14 -14 -15 -14 -14 -14 -14 -15 -15 -14 -14 -14 -14
-11 -11 -11 -11 -11 -12 -12 -12 -12 -12 -11 -11 -11 -11 -11 -10 -10 -12 -12 -13 -12 -12 -11 -11 -11 -11 -12 -12 -12 -12 -12 -13 -14 -14 -14 -14 -14 -15 -14 -15 -15 -14 -14 -14 -15 -15 -15 -15 -15
-11 -11 -11 -11 -11 -11 -12 -12 -12 -12 -12 -12 -12 -12 -11 -11 -12 -12 -12 -13 -13 -12 -13 -12 -12 -12 -13 -13 -12 -12 -12 -13 -14 -16 -17 -16 -15 -15 -15 -15 -14 -15 -14 -15 -16 -15 -15 -15 -16
-10 -10 -11 -11 -11 -11 -12 -12 -11 -11 -11 -12 -11 -11 -12 -13 -13 -12 -13 -13 -14 -14 -14 -14 -14 -14 -15 -14 -14 -13 -14 -14 -15 -16 -17 -18 -17 -18 -17 -17 -17 -16 -15 -15 -16 -16 -16 -16 -16
-11 -10 -11 -11 -11 -11 -12 -11 -11 -12 -12 -12 -12 -13 -13 -13 -13 -13 -13 -14 -15 -14 -15 -15 -15 -15 -15 -15 -15 -15 -15 -16 -16 -17 -17 -18 -18 -18 -18 -18 -18 -17 -17 -17 -16 -16 -16 -16 -16
-11 -10 -10 -11 -11 -12 -12 -12 -12 -13 -13 -13 -13 -14 -14 -14 -14 -14 -15 -15 -15 -15 -15 -15 -16 -16 -16 -16 -16 -16 -17 -16 -16 -16 -17 -17 -17 -17 -18 -18 -19 -19 -18 -18 -18 -17 -17 -16 -16
-10 -10 -11 -11 -11 -12 -12 -13 -13 -13 -13 -13 -14 -14 -14 -14 -15 -15 -15 -15 -15 -15 -16 -16 -16 -16 -15 -16 -16 -16 -17 -17 -17 -17 -16 -16 -17 -17 -18 -18 -19 -19 -19 -19 -18 -17 -17 -16 -16
-11 -11 -11 -11 -12 -12 -12 -12 -13 -13 -13 -13 -13 -14 -14 -14 -15 -15 -15 -15 -16 -16 -16 -16 -16 -16 -16 -15 -16 -16 -17 -17 -17 -16 -16 -16 -17 -17 -17 -18 -19 -19 -19 -19 -18 -17 -16 -16 -17
-11 -11 -12 -11 -12 -12 -13 -13 -13 -13 -13 -13 -13 -14 -14 -15 -15 -15 -15 -16 -16 -17 -17 -16 -16 -16 -16 -16 -16 -17 -17 -17 -17 -17 -16 -17 -17 -17 -17 -17 -18 -18 -19 -18 -18 -17 -17 -17 -17
-11 -11 -12 -12 -12 -13 -13 -13 -13 -13 -13 -13 -13 -14 -15 -15 -15 -16 -16 -16 -17 -16 -16 -16 -16 -17 -17 -17 -18 -18 -18 -18 -18 -18 -18 -17 -17 -17 -17 -17 -17 -17 -17 -17 -17 -17 -17 -17 -17
-11 -12 -12 -13 -13 -13 -13 -12 -14 -13 -13 -13 -14 -15 -15 -15 -16 -16 -17 -17 -17 -16 -16 -16 -17 -17 -17 -18 -18 -19 -19 -19 -19 -18 -18 -18 -17 -18 -18 -17 -17 -17 -17 -17 -16 -16 -16 -17 -17
Height
5926 5926 5926 5927 5932 5927 5925 5924 5925 5921 5918 5916 5914 5906 5916 5920 5922 5923 5921 5919 5918 5917 5916 5916 5915 5914 5915 5916 5916 5917 5917 5917 5917 5917 5917 5917 5917 5917 5918 5918 5916 5916 5915 5914 5914 5913 5912 5911 5910
5925 5926 5926 5928 5928 5925 5924 5921 5922 5919 5918 5915 5911 5911 5916 5917 5921 5920 5918 5917 5916 5916 5915 5915 5913 5913 5912 5913 5915 5915 5915 5915 5915 5914 5915 5915 5915 5914 5915 5916 5916 5914 5913 5914 5913 5912 5910 5910 5908
5924 5925 5928 5927 5924 5921 5922 5920 5919 5917 5914 5914 5913 5914 5920 5918 5919 5919 5915 5915 5914 5913 5911 5909 5910 5910 5910 5911 5912 5913 5912 5911 5912 5911 5912 5912 5912 5912 5912 5912 5913 5912 5910 5910 5910 5909 5908 5906 5907
5923 5926 5928 5925 5920 5918 5919 5920 5920 5917 5913 5914 5919 5918 5916 5914 5916 5914 5910 5908 5907 5907 5907 5905 5906 5906 5907 5907 5907 5908 5909 5909 5909 5910 5911 5911 5910 5910 5909 5909 5909 5910 5907 5906 5905 5904 5905 5904 5903
5926 5926 5926 5923 5919 5918 5917 5920 5921 5917 5917 5920 5918 5916 5914 5910 5907 5908 5903 5900 5901 5902 5903 5903 5903 5904 5903 5903 5904 5905 5905 5905 5904 5905 5906 5905 5906 5906 5905 5905 5905 5904 5904 5902 5901 5900 5899 5900 5903
5928 5927 5923 5920 5919 5917 5918 5918 5917 5917 5918 5920 5919 5916 5912 5904 5905 5904 5906 5898 5901 5903 5902 5902 5903 5904 5901 5900 5900 5901 5902 5902 5904 5904 5903 5902 5903 5902 5902 5901 5901 5901 5900 5898 5897 5898 5898 5900 5899
5927 5926 5923 5920 5920 5918 5918 5917 5917 5916 5917 5917 5919 5916 5910 5909 5907 5906 5906 5901 5898 5899 5900 5901 5901 5901 5901 5900 5899 5898 5898 5898 5899 5900 5900 5900 5900 5899 5899 5899 5899 5898 5896 5893 5893 5896 5897 5895 5894
5927 5925 5921 5918 5919 5921 5919 5917 5916 5915 5916 5914 5913 5911 5909 5907 5904 5904 5903 5900 5899 5897 5897 5898 5899 5897 5897 5896 5896 5897 5897 5896 5896 5896 5896 5897 5896 5895 5895 5894 5894 5894 5892 5892 5893 5892 5889 5890 5889
5926 5925 5924 5920 5917 5919 5917 5917 5915 5915 5915 5914 5913 5909 5910 5907 5907 5906 5907 5905 5899 5896 5895 5896 5898 5895 5895 5893 5896 5897 5895 5892 5891 5892 5891 5893 5893 5892 5891 5890 5889 5888 5887 5889 5888 5887 5886 5885 5885
5924 5925 5926 5925 5923 5922 5921 5919 5919 5917 5913 5914 5913 5912 5912 5909 5908 5909 5909 5904 5898 5898 5896 5896 5898 5895 5893 5892 5892 5893 5895 5890 5889 5889 5890 5889 5888 5886 5884 5884 5883 5882 5882 5882 5881 5881 5880 5878 5877
5924 5923 5926 5927 5927 5926 5926 5923 5919 5915 5912 5915 5912 5911 5910 5908 5904 5903 5904 5902 5899 5897 5895 5893 5893 5892 5892 5892 5895 5893 5891 5889 5886 5885 5885 5883 5882 5881 5879 5878 5877 5876 5875 5875 5875 5874 5873 5872 5871
5924 5921 5924 5926 5925 5925 5925 5923 5921 5915 5912 5910 5911 5909 5906 5905 5901 5898 5897 5896 5896 5893 5891 5889 5889 5889 5889 5891 5890 5887 5885 5883 5881 5881 5879 5877 5876 5874 5874 5873 5871 5870 5868 5867 5867 5867 5865 5865 5864
5922 5921 5922 5922 5923 5923 5920 5920 5921 5909 5908 5907 5908 5907 5907 5903 5899 5895 5892 5891 5890 5890 5886 5885 5884 5882 5884 5883 5880 5880 5879 5877 5874 5873 5871 5867 5866 5865 5864 5863 5862 5861 5860 5860 5859 5858 5857 5856 5856
5921 5921 5921 5921 5919 5919 5918 5917 5917 5911 5906 5907 5906 5906 5906 5903 5900 5895 5893 5891 5889 5886 5884 5878 5876 5876 5876 5874 5872 5871 5870 5867 5865 5863 5861 5859 5857 5855 5852 5852 5851 5850 5850 5851 5850 5849 5848 5847 5847
5920 5920 5918 5916 5917 5915 5914 5914 5911 5910 5907 5906 5905 5905 5903 5902 5897 5893 5889 5887 5884 5882 5879 5876 5871 5868 5864 5861 5858 5857 5855 5856 5854 5852 5850 5848 5846 5844 5842 5840 5837 5836 5836 5837 5836 5837 5838 5836 5835
5918 5918 5917 5914 5910 5912 5910 5909 5907 5906 5905 5904 5904 5901 5900 5898 5895 5891 5888 5883 5879 5875 5872 5871 5866 5861 5856 5854 5852 5849 5846 5845 5844 5841 5839 5837 5834 5832 5831 5828 5826 5824 5823 5823 5822 5821 5822 5823 5824
5914 5914 5911 5910 5909 5908 5906 5906 5903 5900 5900 5899 5899 5900 5898 5894 5892 5887 5884 5880 5876 5872 5867 5861 5857 5854 5849 5845 5840 5835 5831 5829 5829 5829 5826 5824 5821 5819 5817 5816 5815 5813 5812 5810 5809 5808 5808 5809 5811
5912 5911 5908 5908 5907 5905 5903 5901 5900 5896 5895 5894 5894 5895 5895 5892 5887 5883 5880 5877 5874 5869 5862 5856 5850 5844 5839 5835 5831 5827 5823 5817 5814 5813 5810 5810 5809 5807 5805 5802 5799 5798 5798 5797 5795 5796 5797 5797 5798
5908 5909 5909 5905 5904 5901 5899 5897 5896 5894 5891 5891 5890 5889 5887 5885 5880 5878 5874 5869 5865 5860 5857 5852 5846 5838 5833 5828 5821 5812 5809 5806 5801 5797 5795 5793 5792 5791 5789 5787 5785 5781 5779 5781 5782 5781 5781 5782 5784
5905 5905 5906 5905 5901 5899 5895 5893 5891 5888 5885 5886 5885 5883 5880 5875 5873 5870 5864 5859 5854 5849 5844 5840 5835 5830 5823 5817 5812 5806 5797 5788 5784 5782 5776 5776 5775 5775 5774 5771 5769 5766 5765 5764 5764 5763 5766 5768 5768
5900 5900 5898 5897 5897 5894 5892 5890 5886 5885 5880 5878 5878 5876 5872 5868 5866 5862 5855 5851 5844 5836 5830 5823 5817 5810 5805 5799 5793 5787 5782 5775 5765 5757 5754 5753 5751 5751 5753 5756 5751 5748 5752 5749 5750 5750 5752 5754 5755
5896 5894 5893 5891 5889 5889 5887 5884 5885 5879 5876 5875 5873 5869 5864 5861 5857 5852 5849 5841 5832 5823 5815 5808 5801 5795 5788 5780 5772 5765 5759 5752 5745 5738 5731 5725 5724 5725 5728 5734 5731 5731 5735 5734 5733 5737 5738 5739 5741
5892 5890 5887 5885 5883 5882 5881 5877 5876 5874 5873 5870 5865 5862 5858 5855 5851 5847 5838 5830 5821 5812 5804 5795 5787 5780 5772 5762 5751 5742 5734 5726 5720 5717 5711 5706 5703 5702 5702 5704 5708 5712 5708 5711 5715 5718 5722 5726 5729
5887 5886 5883 5880 5879 5877 5874 5872 5870 5870 5867 5864 5860 5856 5852 5847 5842 5836 5830 5822 5814 5806 5797 5789 5781 5772 5759 5747 5734 5724 5716 5709 5703 5699 5697 5695 5692 5687 5684 5684 5685 5687 5689 5692 5697 5702 5706 5710 5713
5882 5880 5880 5878 5875 5874 5871 5868 5864 5861 5860 5857 5855 5848 5843 5838 5833 5828 5822 5814 5808 5800 5791 5782 5770 5758 5746 5735 5724 5713 5704 5697 5691 5687 5682 5681 5679 5676 5671 5668 5666 5665 5667 5672 5677 5684 5689 5693 5697
5879 5878 5876 5873 5872 5870 5866 5863 5861 5857 5854 5851 5845 5841 5836 5833 5828 5824 5816 5810 5802 5791 5781 5769 5754 5742 5730 5717 5708 5700 5693 5686 5679 5674 5670 5667 5663 5661 5658 5655 5651 5649 5649 5652 5659 5665 5671 5677 5679
5876 5872 5870 5868 5867 5866 5863 5860 5856 5854 5851 5846 5842 5838 5835 5829 5823 5815 5805 5796 5786 5774 5760 5746 5734 5722 5712 5703 5695 5688 5681 5674 5667 5662 5660 5656 5652 5648 5645 5642 5639 5636 5636 5639 5643 5650 5656 5659 5663
5871 5869 5866 5864 5861 5860 5858 5854 5851 5848 5843 5837 5833 5830 5826 5819 5811 5802 5792 5783 5772 5758 5744 5731 5718 5706 5697 5689 5680 5673 5667 5662 5656 5651 5648 5645 5641 5638 5635 5632 5629 5627 5626 5627 5631 5637 5641 5645 5648
5868 5864 5861 5859 5856 5852 5853 5856 5848 5841 5836 5831 5827 5822 5815 5808 5801 5790 5780 5768 5756 5744 5731 5716 5705 5694 5683 5674 5667 5660 5654 5648 5644 5639 5636 5633 5630 5627 5626 5623 5621 5620 5619 5620 5623 5626 5630 5633 5636
5863 5858 5856 5852 5853 5849 5846 5846 5839 5833 5829 5825 5819 5813 5807 5798 5788 5778 5769 5757 5744 5732 5718 5705 5693 5681 5671 5662 5655 5649 5644 5638 5633 5628 5623 5620 5617 5616 5614 5613 5612 5612 5613 5613 5615 5617 5619 5622 5624
Wind_Speed
14 15 11 7 5 6 12 15 8 14 14 1 6 5 10 14 9 9 9 10 9 9 11 10 11 11 11 12 12 14 15 15 15 16 18 19 18 17 19 19 17 17 17 16 16 15 14 14 14
9 11 8 3 5 7 16 17 10 15 19 16 18 16 32 25 11 13 14 12 9 12 13 13 11 13 12 12 14 15 16 17 17 18 19 20 21 20 20 21 21 20 19 18 18 18 18 18 17
9 13 8 1 7 9 20 14 15 24 29 33 34 29 13 22 11 6 14 16 16 18 16 11 12 13 14 15 16 18 17 18 20 20 21 20 20 21 21 22 24 22 20 20 20 21 21 21 21
12 13 8 10 7 7 15 12 17 29 32 33 28 19 13 22 17 8 11 12 10 9 16 10 11 12 15 17 19 19 20 19 19 20 22 21 21 21 21 22 22 22 21 21 22 23 22 23 23
17 14 11 10 13 7 12 13 26 28 28 30 29 26 19 20 12 8 10 14 12 10 9 9 10 14 17 18 18 18 20 21 20 19 19 20 22 23 22 22 23 24 25 25 26 26 25 24 24
21 13 3 1 11 10 12 20 27 27 28 33 26 25 20 16 15 11 5 15 14 11 12 14 14 17 16 16 17 17 18 19 21 22 22 22 23 24 23 23 24 24 25 26 27 28 26 24 23
21 16 11 10 15 9 9 14 21 27 30 28 23 21 18 15 16 17 16 19 13 9 8 12 14 16 18 20 19 19 18 19 20 20 20 21 22 23 23 25 26 27 27 27 25 22 22 21 22
16 12 10 13 15 3 9 15 23 27 29 32 29 21 15 17 19 15 17 14 9 4 9 11 21 19 19 19 24 21 17 16 21 20 20 21 22 23 23 22 25 29 29 31 29 26 25 26 27
13 8 13 10 10 10 13 17 24 29 29 29 25 24 17 16 18 17 19 22 22 25 23 18 29 7 29 20 12 17 14 10 16 18 19 22 26 27 24 25 26 30 34 35 32 33 32 30 31
11 8 14 7 10 16 9 16 21 30 34 28 28 20 15 16 14 10 16 17 20 19 15 16 24 23 16 27 6 6 15 6 13 12 18 23 26 26 24 27 27 29 32 36 37 34 41 40 41
12 4 9 8 14 17 21 22 29 36 39 27 25 20 16 15 19 22 21 20 21 20 20 21 21 24 22 28 26 25 20 18 17 13 25 20 22 24 24 27 27 27 29 29 27 26 29 30 28
11 6 9 14 17 23 26 30 34 39 39 29 21 16 16 16 20 24 26 25 23 24 26 27 26 28 25 26 22 24 25 27 24 23 26 31 30 33 35 33 33 33 34 32 30 30 30 31 32
4 14 12 14 13 18 20 25 18 24 25 25 20 17 14 17 22 26 30 32 31 29 31 31 31 31 29 30 31 29 29 32 29 27 31 33 36 38 40 39 37 37 39 38 37 37 35 35 36
10 10 13 10 12 13 8 12 12 19 22 21 20 16 13 16 19 24 28 31 33 35 35 38 38 36 35 37 35 35 35 35 36 38 38 38 41 45 44 41 41 42 41 42 40 40 40 39 39
6 8 11 19 13 12 15 12 19 19 18 13 19 16 15 15 21 25 30 33 34 35 35 36 39 41 42 43 44 42 41 40 41 43 42 45 44 46 48 49 48 48 47 46 45 43 42 42 43
9 3 4 9 20 18 21 21 27 21 15 21 20 17 14 18 22 27 30 34 36 38 39 40 43 44 45 45 43 43 44 43 43 45 45 47 48 47 50 51 51 52 52 51 51 51 47 47 46
13 8 12 12 12 15 23 26 27 30 24 20 14 15 19 24 27 29 30 34 37 38 42 46 45 45 44 43 43 45 46 47 46 45 47 50 53 53 55 56 57 56 55 55 55 55 55 53 50
11 9 14 15 12 18 18 17 25 27 31 31 23 18 20 27 29 30 32 32 33 38 43 46 46 47 49 48 47 46 46 49 49 49 49 51 53 56 58 60 61 60 60 60 61 60 58 56 53
10 10 15 19 25 25 16 22 26 26 31 32 30 26 25 26 32 27 36 39 39 42 43 43 43 43 45 44 47 55 55 52 51 54 52 49 50 55 58 61 62 60 61 62 63 64 63 61 60
15 17 20 25 30 32 34 32 33 40 44 41 36 32 33 35 30 31 45 45 49 51 51 49 45 44 48 51 50 51 54 59 60 57 56 53 51 52 52 50 52 49 51 54 57 60 60 60 60
20 20 25 31 35 41 42 41 37 43 45 40 38 37 37 35 37 43 50 53 55 56 55 55 55 57 61 60 61 60 59 61 66 68 66 66 67 64 62 47 47 44 47 45 55 55 54 50 48
21 23 25 25 27 27 31 39 36 43 47 45 40 41 38 39 43 49 52 55 57 60 63 66 67 68 67 67 68 68 68 70 66 54 56 62 65 69 70 66 57 53 63 51 49 42 42 43 40
16 16 19 18 18 21 20 29 29 32 32 32 34 36 39 42 49 51 54 59 63 66 69 71 73 72 73 73 74 76 76 73 67 57 53 48 55 60 69 73 75 76 77 63 60 61 65 60 46
20 17 13 18 15 15 20 23 24 24 26 29 33 38 45 49 51 52 56 58 63 66 69 71 70 71 73 74 78 76 70 64 58 49 49 49 48 54 56 61 68 78 80 82 81 77 71 71 68
18 22 15 14 14 12 19 20 23 25 26 32 36 42 46 49 53 55 54 60 64 66 68 69 71 71 73 74 68 61 58 54 48 42 38 36 41 45 50 55 59 64 71 73 72 70 67 66 67
19 18 17 15 15 15 18 21 25 30 33 36 38 42 46 51 53 54 58 59 61 65 68 69 72 74 76 69 57 52 49 48 48 45 39 37 37 38 43 45 49 55 59 61 61 64 62 60 62
20 23 23 21 17 14 19 24 29 32 33 38 43 46 49 52 51 54 57 60 64 68 72 74 77 78 68 58 52 49 45 43 44 43 38 35 37 37 34 35 41 45 45 47 49 54 57 58 57
22 24 24 24 22 18 17 22 26 29 34 39 42 43 45 47 51 55 58 63 67 70 73 78 76 67 62 56 54 51 49 44 43 41 39 38 37 36 35 33 31 33 34 34 38 43 45 45 46
23 25 25 22 22 22 18 16 25 32 36 41 43 44 46 49 52 56 61 66 70 71 76 71 65 62 58 53 51 47 44 42 41 41 39 38 36 36 35 34 32 28 27 28 29 30 34 37 39
25 26 25 24 21 24 26 23 28 34 39 42 44 45 48 51 55 59 63 67 70 73 66 61 58 56 51 46 43 40 40 42 43 44 43 42 39 37 34 34 31 31 29 30 29 30 33 35 36
Wind_Direction
206 211 224 259 8 340 323 332 330 331 332 126 158 131 9 341 338 320 314 323 328 327 326 310 247 236 244 255 251 258 259 260 262 259 262 264 266 265 268 267 262 262 258 254 254 251 247 245 245
181 177 182 62 340 313 11 7 9 347 334 317 13 32 351 330 313 310 313 304 302 303 306 302 283 241 233 242 261 261 262 261 261 262 260 263 262 261 265 268 265 260 262 263 263 261 257 252 246
168 168 134 90 15 12 23 351 339 353 357 352 360 351 344 356 322 304 302 290 283 282 286 293 279 250 240 244 252 258 263 267 269 264 264 265 266 265 263 263 267 264 261 261 263 262 259 257 254
156 129 92 54 15 40 24 359 358 352 350 351 359 0 325 328 360 250 296 265 267 279 288 261 275 259 241 244 244 250 259 267 270 276 279 278 275 273 267 265 266 267 263 261 260 260 261 261 260
112 96 63 43 6 44 35 340 334 343 336 335 355 6 358 325 334 296 204 243 247 242 253 273 268 277 260 254 250 243 246 256 266 270 273 277 279 275 270 266 261 258 258 258 259 261 261 262 267
103 71 49 84 348 47 21 327 329 327 333 336 340 342 345 329 334 325 270 251 261 273 280 297 301 293 267 257 262 262 264 264 268 272 277 278 277 276 275 271 267 265 262 260 260 262 265 270 269
83 59 41 80 30 355 16 325 313 317 335 342 338 343 337 342 335 329 319 277 279 284 300 290 286 285 290 280 270 269 271 274 278 280 282 284 285 284 284 282 279 273 267 261 260 265 270 264 262
102 86 54 38 46 350 327 317 320 317 327 333 335 332 329 326 327 328 318 298 308 298 285 313 292 286 282 277 276 268 276 286 278 280 290 288 286 283 283 287 287 283 277 275 272 263 258 260 261
140 85 36 36 307 340 344 321 312 312 323 332 332 331 346 322 324 340 354 343 349 356 336 343 341 320 358 252 265 277 272 314 324 305 289 281 290 288 284 289 284 282 282 280 276 271 266 266 266
134 89 75 349 321 317 295 290 296 311 316 324 325 325 337 334 315 328 353 349 12 357 345 341 336 350 353 5 223 22 325 280 335 294 309 292 290 286 295 283 288 289 283 278 274 274 267 273 271
192 186 142 273 275 277 282 279 292 298 301 316 317 319 322 329 329 329 343 346 353 341 332 335 340 341 341 303 336 330 309 299 319 304 308 286 287 288 288 287 285 285 281 282 284 281 278 273 274
214 251 285 244 250 265 272 276 280 293 300 301 308 310 318 331 330 330 329 334 339 334 329 328 324 325 325 313 312 312 308 304 304 298 293 292 291 287 283 280 281 281 281 281 282 280 278 279 280
237 241 276 296 290 286 280 280 290 296 288 297 306 318 327 328 328 325 324 326 328 328 322 321 319 317 311 307 307 306 300 295 297 287 283 279 280 278 279 281 278 277 277 277 277 277 276 277 278
247 271 288 290 298 285 271 271 324 310 298 293 300 301 313 319 317 310 313 315 315 315 314 313 313 310 307 306 304 299 296 295 293 289 287 282 281 281 282 279 277 275 274 274 273 273 275 275 275
294 258 293 302 293 283 305 285 311 319 293 278 287 292 301 305 300 307 308 307 308 306 305 305 306 306 306 306 304 304 299 294 292 290 288 285 282 280 281 282 281 279 278 276 275 271 269 270 272
223 221 200 312 304 307 305 298 305 310 309 301 286 282 291 298 302 299 300 302 305 305 306 308 307 307 305 304 301 298 295 292 289 288 286 284 285 280 281 280 279 280 281 279 277 276 273 269 268
248 230 251 258 288 288 275 283 300 303 314 311 275 284 299 303 303 300 300 302 304 308 308 308 307 307 306 305 304 301 297 293 289 284 280 279 280 279 279 276 277 276 276 276 275 274 275 275 274
256 265 287 278 301 285 292 294 297 302 308 305 289 288 295 294 293 295 301 302 301 306 307 306 306 307 306 304 302 299 295 293 290 287 281 277 275 275 276 277 276 273 272 271 272 273 273 274 274
234 246 261 277 281 275 276 270 286 286 297 300 295 295 290 289 293 299 305 299 301 302 300 298 296 299 300 300 304 303 299 296 293 287 282 281 276 270 270 270 271 271 272 271 269 270 271 272 272
289 279 264 264 268 282 287 279 284 288 290 294 298 297 296 295 301 305 306 308 305 303 300 298 294 298 301 300 296 289 296 295 291 284 281 276 269 272 268 264 268 264 268 269 266 266 265 268 270
281 279 274 267 257 266 271 273 275 281 290 292 297 300 298 307 306 303 308 308 305 306 307 309 308 309 310 307 301 297 294 294 298 294 286 276 270 260 254 262 250 250 264 253 262 267 270 273 275
281 285 287 282 278 268 263 264 261 272 278 285 290 288 299 306 306 302 306 304 312 315 318 318 316 314 311 309 305 301 298 299 295 282 274 272 267 265 257 246 244 243 238 253 249 253 263 270 272
290 293 294 292 282 275 260 260 263 264 269 273 279 293 296 298 296 302 306 311 314 316 317 317 317 317 316 312 308 308 306 303 298 290 278 271 269 268 263 256 248 242 249 246 247 252 259 262 256
301 303 291 299 296 281 276 279 279 272 272 277 284 290 292 296 300 304 308 310 310 312 315 315 315 314 312 312 311 306 303 298 296 293 286 282 275 272 273 269 266 256 250 250 254 257 258 258 257
311 314 316 296 291 276 274 280 286 291 285 287 288 291 295 297 301 306 306 305 308 310 311 312 313 312 311 308 303 300 299 299 299 297 295 286 278 272 271 270 266 264 260 257 257 257 257 259 261
304 318 317 311 301 297 281 270 270 281 285 288 288 290 291 296 298 299 300 302 306 309 311 312 311 310 311 308 303 300 299 297 297 297 296 294 289 282 273 274 271 267 261 258 256 256 258 262 264
317 314 313 311 307 293 278 271 273 275 278 278 280 283 288 295 300 298 304 308 313 315 316 314 315 313 309 307 305 303 300 297 295 292 293 289 289 292 292 282 276 271 268 260 257 255 256 262 265
314 309 307 307 303 294 287 286 285 291 292 293 296 300 302 307 306 309 312 316 317 316 314 315 314 311 310 308 304 302 299 298 294 292 291 289 288 288 290 291 286 275 267 259 254 253 255 259 262
309 305 306 305 303 301 295 277 291 289 291 299 307 311 311 308 312 315 319 318 317 316 317 314 311 311 308 306 303 300 298 298 296 294 290 287 287 285 284 284 285 280 271 263 259 258 258 259 261
310 308 310 306 305 303 305 312 296 300 307 311 312 308 309 316 318 320 319 316 316 317 313 313 315 313 315 311 307 305 302 300 296 293 290 288 283 283 284 280 276 273 268 263 260 260 260 258 259